Regional Weather Roundup
Issued by NWS Glasgow, MT

Home | Current Version | Previous Version | Text Only | Print | Product List | Glossary On
Versions: 1 2 3 4 5 6 7 8 9 10 11 12 13 14 15 16 17 18 19 20 21 22 23 24 25 26 27 28
000
ASUS45 KGGW 162215
RWRGGW
HOURLY WEATHER ROUNDUP FOR NORTHEAST MONTANA
NATIONAL WEATHER SERVICE GLASGOW MONTANA
400 PM MDT WED APR 16 2014

NOTE: "FAIR" INDICATES FEW OR NO CLOUDS BELOW 12,000 FEET WITH NO
SIGNIFICANT WEATHER AND/OR OBSTRUCTIONS TO VISISBILITY.

NORTHEAST MONTANA


CITY           SKY/WX    TMP DP  RH WIND       PRES   REMARKS
GLASGOW        CLOUDY    36  20  52 SE10      30.13R
PLENTYWOOD       N/A     29  21  72 E10         N/A
WOLF POINT     CLOUDY    35  19  52 E8        30.17R
JORDAN           N/A     41  23  48 E10       30.08R
WINNETT          N/A     43  28  55 E3          N/A
SIDNEY         CLOUDY    34  19  55 E10       30.19R
GLENDIVE       CLOUDY    32  19  59 NE9       30.13S

FORT PECK REPORTS


CITY           SKY/WX    TMP DP  RH WIND       PRES   REMARKS
FORT PECK        N/A     36  24  62 E10         N/A
THE PINES        N/A     36  21  54 NE7         N/A

SOUTHEAST MONTANA


CITY           SKY/WX    TMP DP  RH WIND       PRES   REMARKS
BILLINGS       PTSUNNY   46  30  53 NE6       29.99S
MILES CITY     CLOUDY    41  24  51 E8        30.06F
BAKER          CLOUDY    35  23  61 E9        30.08R
LIVINGSTON     PTSUNNY   49  24  37 SW14G21   29.95F

CENTRAL MONTANA


CITY           SKY/WX    TMP DP  RH WIND       PRES   REMARKS
HAVRE          CLOUDY    43  29  57 SE6       30.03S
LEWISTOWN      CLOUDY    41  30  65 E7        29.98R
GREAT FALLS    LGT RAIN  39  35  86 SW15      29.98R
CUT BANK       CLOUDY    33  30  88 SE5       29.99S
HELENA         PTSUNNY   51  21  30 NW10G17   29.94F
BUTTE          CLOUDY    43  17  35 SW9       29.96F
BOZEMAN        CLOUDY    47  21  35 NW12      29.96F

WESTERN MONTANA


CITY           SKY/WX    TMP DP  RH WIND       PRES   REMARKS
MISSOULA       CLOUDY    49  28  44 N8        30.01F
KALISPELL      NOT AVBL

NORTH DAKOTA


CITY           SKY/WX    TMP DP  RH WIND       PRES   REMARKS
WILLISTON      CLOUDY    29  23  78 E14       30.21R
DICKINSON      CLOUDY    29  21  72 NE9       30.11R
MINOT          CLOUDY    33  19  56 NE12      30.21R
BISMARCK       CLOUDY    36  17  46 NE15G21   30.16R

SOUTHERN SASKATCHEWAN


CITY           SKY/WX    TMP DP  RH WIND       PRES   REMARKS
REGINA         FLURRIES  30  18  59 SE10G17   30.25S
MOOSE JAW      CLOUDY    28  16  59 E16       30.24S
ESTEVAN        LGT SNOW  28  21  74 SE14      30.25S
SWIFT CURRENT  FLURRIES  27  23  86 E14G20    30.13S




USA.gov is the U.S. government's official web portal to all federal, state and local government web resources and services.